[[{"header":{"parameterUnit":"m.s-1","parameterCategory":1,"la1":30.2991,"la2":30.254,"lo1":-89.0895,"lo2":-89.0444,"dy":0.0017,"dx":0.0017,"nx":28,"ny":28,"refTime":"2024-02-05T03:00:00:Z","depth":0,"parameterNumber":2,"parameterNumberName":"U-component_of_WINDS"},"data":[0,0,0,0,0,0,0,0,0,0,0,0,0,0,0,0,0,0,0,0,0,0,0,0,0,0,0,0,0,0,0,0,0,0,0,0,0,0,0,0,0,0,0,0,0,0,0,0,0,0,0,0,0,0,0,0,0,0,3.2421,3.242,0,3.2338,3.2337,3.2336,3.2231,3.2229,3.2227,3.2226,3.2143,3.2142,3.2142,0,0,0,0,0,0,0,0,0,0,0,0,0,3.2493,3.2492,3.2421,3.242,3.2419,3.2338,3.2337,3.2336,3.2231,3.2229,3.2227,3.2225,3.2143,3.2142,3.2142,0,0,0,0,0,0,0,0,0,0,0,0,0,3.2441,3.2492,3.2422,3.2357,3.2351,3.2339,3.2337,3.2336,3.2232,3.2229,3.2226,3.2224,3.2143,3.2142,3.2142,3.2187,0,0,3.2139,3.2138,0,0,0,0,0,0,0,0,3.2444,3.2439,3.2368,3.2362,3.2354,3.2292,3.2332,3.2286,3.2232,3.2277,3.2226,3.2223,3.2195,3.219,3.218,3.2183,3.2179,3.2139,3.2138,3.2138,3.2137,0,0,0,0,0,0,0,3.2448,3.2442,3.2388,3.2367,3.2359,3.2334,3.2323,3.2323,3.2251,3.2273,3.2265,3.2256,3.2191,3.2181,3.2177,3.2178,3.2139,3.2138,3.2137,3.2137,3.2218,3.2221,0,0,0,0,0,0,3.2461,3.2445,3.2391,3.2386,3.2394,3.2334,3.2323,3.2315,3.2251,3.2239,3.2259,3.2252,3.2184,3.2178,3.2174,3.2226,3.2138,3.2137,3.2136,3.2216,3.2219,3.2222,0,0,0,0,0,0,3.2463,3.2457,3.2394,3.2413,3.2404,3.2336,3.2327,3.2314,3.2304,3.224,3.2227,3.2262,3.2181,3.2175,3.2185,3.2221,3.2136,3.2136,3.2213,3.2217,3.2221,3.2328,0,0,0,0,0,0,3.2465,3.2458,3.2474,3.2415,3.2403,3.2407,3.2329,3.2315,3.2303,3.2293,3.2239,3.2228,3.2179,3.2187,3.2184,3.2218,3.2135,3.2209,3.2214,3.2219,3.2321,3.2336,3.2348,0,0,0,0,0,3.2468,3.2507,3.2475,3.2469,3.2421,3.2409,3.2402,3.2344,3.2306,3.2322,3.2281,3.223,3.2217,3.2189,3.2185,3.2219,3.2207,3.2213,3.2219,3.2316,3.2333,3.2348,0,0,0,0,0,0,3.2573,3.2498,3.2462,3.2483,3.2453,3.2391,3.241,3.2364,3.2345,3.2337,3.2266,3.2255,3.2275,3.2247,3.2217,3.2262,3.2204,3.221,3.2279,3.2295,3.2308,3.2316,3.2134,0,0,0,0,0,3.2598,3.2594,3.2529,3.2554,3.2541,3.2478,3.2471,3.2428,3.2395,3.2382,3.2342,3.2312,3.2302,3.2296,3.2283,3.2316,3.2305,3.2338,3.2351,3.2362,3.2369,3.2388,3.2403,3.2242,3.2242,3.2242,0,0,3.2651,3.261,3.2611,3.2574,3.2546,3.2545,3.2468,3.2469,3.2468,3.2382,3.2391,3.236,3.2322,3.2346,3.2353,3.2323,3.2411,3.237,3.2379,3.238,3.2396,3.2412,3.2425,3.2246,3.2246,3.2245,0,0,3.2747,3.2714,3.2733,3.2707,3.2665,3.2623,3.2628,3.2573,3.255,3.2557,3.2493,3.2491,3.2474,3.2451,3.2437,3.2526,3.248,3.2524,3.2594,3.2614,3.2627,3.2638,3.2673,3.2687,3.253,3.253,3.253,0,3.2818,3.2813,3.2748,3.2754,3.2741,3.2663,3.2683,3.2661,3.2617,3.2611,3.2577,3.2556,3.2524,3.2543,3.2565,3.2555,3.256,3.2531,3.263,3.264,3.265,3.2683,3.2696,3.2536,3.2535,3.2535,3.2534,0,3.2905,3.2902,3.2922,3.2883,3.2872,3.2885,3.2824,3.282,3.2779,3.2742,3.2752,3.2711,3.269,3.269,3.265,3.2704,3.2687,3.2642,3.2584,3.2672,3.2702,3.2714,3.2545,3.2542,3.2541,3.2539,0,0,3.3065,3.2991,3.3,3.2983,3.2932,3.293,3.294,3.2919,3.2919,3.2892,3.2901,3.2888,3.2848,3.2832,3.2788,3.2805,3.2883,3.2758,3.2757,3.2787,3.2945,3.2982,3.2997,3.2851,3.2853,3.2854,3.2949,0,3.3155,3.3169,3.3112,3.3141,3.3139,3.3065,3.3075,3.3046,3.3011,3.3006,3.2968,3.2962,3.2906,3.2897,3.291,3.2871,3.2915,3.2863,3.2862,3.2862,3.2877,3.3012,3.305,3.3142,3.296,3.2962,3.2964,0,3.3262,3.3242,3.3271,3.3221,3.3219,3.3228,3.3206,3.3201,3.3167,3.3141,3.3125,3.3074,3.3083,3.3025,3.3038,3.3004,3.3,3.2981,3.2983,3.2983,3.2921,3.302,3.3169,3.3185,3.2981,3.298,3.2978,0,3.3381,3.3361,3.3377,3.3363,3.3305,3.3314,3.329,3.3254,3.3246,3.3226,3.3221,3.3202,3.3194,3.3181,3.3128,3.309,3.3149,3.3086,3.313,3.3132,3.3148,3.3149,3.3303,3.314,3.3139,3.3139,3.3139,0,3.349,3.3511,3.343,3.344,3.3463,3.3398,3.3423,3.3391,3.336,3.3365,3.3298,3.3304,3.3232,3.323,3.3188,3.3207,3.3203,3.3184,3.3173,3.3192,3.3195,3.3191,3.3185,3.3143,3.3142,3.3141,3.3141,0,3.3628,3.3574,3.3587,3.3531,3.3517,3.3537,3.349,3.3498,3.3459,3.3466,3.3463,3.3403,3.3398,3.3343,3.3325,3.3297,3.3334,3.3309,3.3346,3.334,3.3389,3.3387,3.3549,3.3568,3.339,3.3391,3.3393,0,3.3703,3.3718,3.3664,3.3662,3.3642,3.3639,3.3631,3.3567,3.3561,3.3526,3.3539,3.3528,3.3516,3.3512,3.3467,3.3454,3.3431,3.3489,3.3429,3.3448,3.3437,3.3438,3.3441,3.3503,3.3505,3.3507,3.3508,0,3.3842,3.3815,3.3805,3.3788,3.378,3.3762,3.3741,3.3744,3.3674,3.3671,3.3665,3.3656,3.3639,3.363,3.3609,3.3586,3.3538,3.3527,3.3537,3.3559,3.3581,3.3574,3.3385,3.3524,3.3523,3.3522,3.3521,3.352,3.3953,3.3965,3.3929,3.3922,3.3899,3.3882,3.3887,3.385,3.3843,3.3825,3.3787,3.3788,3.3756,3.3723,3.3704,3.3705,3.3675,3.3689,3.3693,3.3699,3.3711,3.3578,3.37,3.37,3.3699,3.3699,3.3698,0,3.4092,3.4066,3.406,3.4033,3.4028,3.398,3.3955,3.3955,3.3956,3.393,3.392,3.3915,3.3907,3.3862,3.3849,3.3859,3.3836,3.3858,3.3858,3.3855,3.3736,3.373,3.3877,3.3877,3.3876,3.3876,3.3876,3.3876,3.4165,3.4183,3.4152,3.416,3.4133,3.4133,3.4123,3.4108,3.4087,3.4084,3.4077,3.4048,3.4015,3.4,3.3991,3.3978,3.3978,3.4009,3.3989,3.3879,3.3862,3.3846,3.3841,3.4008,3.4008,3.4108,3.4109,3.411]},{"header":{"parameterUnit":"m.s-1","parameterCategory":1,"la1":30.2991,"la2":30.254,"lo1":-89.0895,"lo2":-89.0444,"dy":0.0017,"dx":0.0017,"nx":28,"ny":28,"refTime":"2024-02-05T03:00:00:Z","depth":0,"parameterNumber":3,"parameterNumberName":"V-component_of_WINDS"},"data":[0,0,0,0,0,0,0,0,0,0,0,0,0,0,0,0,0,0,0,0,0,0,0,0,0,0,0,0,0,0,0,0,0,0,0,0,0,0,0,0,0,0,0,0,0,0,0,0,0,0,0,0,0,0,0,0,0,0,1.6437,1.6438,0,1.6486,1.6487,1.6487,1.6432,1.643,1.6428,1.6426,1.6475,1.6479,1.6482,0,0,0,0,0,0,0,0,0,0,0,0,0,1.6294,1.6297,1.6437,1.6438,1.6438,1.6486,1.6487,1.6487,1.6432,1.643,1.6427,1.6425,1.6474,1.6478,1.6482,0,0,0,0,0,0,0,0,0,0,0,0,0,1.6351,1.6298,1.6437,1.6417,1.6415,1.6486,1.6487,1.6488,1.6433,1.643,1.6427,1.6424,1.6473,1.6478,1.6483,1.6576,0,0,1.6498,1.65,0,0,0,0,0,0,0,0,1.6348,1.6356,1.6419,1.6418,1.6417,1.645,1.6454,1.6517,1.6434,1.6426,1.6426,1.6422,1.6469,1.6474,1.649,1.6578,1.658,1.6498,1.6501,1.6503,1.6505,0,0,0,0,0,0,0,1.6344,1.6354,1.6457,1.642,1.6419,1.6404,1.6409,1.6466,1.6465,1.6427,1.6423,1.6429,1.6468,1.6486,1.6491,1.6581,1.6498,1.6502,1.6505,1.6507,1.6743,1.6746,0,0,0,0,0,0,1.6342,1.6351,1.6455,1.6458,1.6374,1.641,1.6415,1.6442,1.6464,1.6464,1.6432,1.6427,1.6479,1.6486,1.6493,1.6599,1.6503,1.6508,1.6511,1.6739,1.6743,1.6747,0,0,0,0,0,0,1.634,1.6352,1.6453,1.6403,1.6415,1.6415,1.6447,1.6445,1.6462,1.6468,1.6467,1.645,1.6477,1.6486,1.6554,1.66,1.651,1.6514,1.6735,1.6741,1.6745,1.6816,0,0,0,0,0,0,1.6336,1.6352,1.6388,1.6405,1.6418,1.6515,1.645,1.6448,1.6471,1.6465,1.6485,1.6485,1.6475,1.6547,1.6559,1.6606,1.6518,1.6731,1.6738,1.6744,1.6809,1.6822,1.6834,0,0,0,0,0,1.6331,1.6406,1.639,1.6403,1.6463,1.6518,1.6525,1.6512,1.6475,1.651,1.6513,1.6485,1.6594,1.6555,1.6568,1.6616,1.6728,1.6736,1.6743,1.6804,1.682,1.6834,0,0,0,0,0,0,1.6395,1.6408,1.639,1.6473,1.6495,1.6508,1.6552,1.653,1.6562,1.6555,1.6537,1.6542,1.6614,1.6623,1.6579,1.6705,1.6655,1.6665,1.6697,1.6712,1.6724,1.6719,1.6522,0,0,0,0,0,1.6419,1.6463,1.6472,1.6544,1.6556,1.6553,1.6576,1.6564,1.6585,1.6594,1.6602,1.6624,1.6662,1.6688,1.6725,1.6811,1.6813,1.6851,1.6863,1.6873,1.6881,1.6924,1.6939,1.6771,1.6771,1.6771,0,0,1.6469,1.6481,1.651,1.6558,1.6573,1.6617,1.6561,1.6611,1.6643,1.6601,1.6665,1.6672,1.6695,1.6772,1.6806,1.6781,1.6928,1.6882,1.689,1.6893,1.6933,1.6949,1.6963,1.6776,1.6775,1.6775,0,0,1.6581,1.6596,1.6656,1.6672,1.6696,1.6692,1.6707,1.6724,1.6726,1.6791,1.6759,1.6797,1.6866,1.6882,1.6899,1.7015,1.6989,1.7028,1.7091,1.7133,1.7146,1.7157,1.7195,1.7209,1.7037,1.7037,1.7037,0,1.6639,1.6705,1.669,1.6741,1.6762,1.6727,1.6786,1.6802,1.6837,1.6851,1.6823,1.6905,1.6918,1.6996,1.7025,1.7041,1.7055,1.7024,1.7145,1.7157,1.7167,1.7203,1.7218,1.7041,1.7041,1.704,1.704,0,1.6774,1.682,1.6866,1.6898,1.6924,1.698,1.6972,1.7,1.6986,1.6985,1.7049,1.7064,1.71,1.7119,1.7106,1.7195,1.7178,1.7148,1.7097,1.7188,1.7221,1.7235,1.7048,1.7046,1.7045,1.7044,0,0,1.6927,1.6949,1.6966,1.6979,1.7001,1.7036,1.7089,1.7125,1.7147,1.7172,1.7214,1.7272,1.7243,1.7263,1.7251,1.7289,1.7375,1.7254,1.7254,1.7272,1.7469,1.7489,1.7505,1.7359,1.7361,1.7363,1.7466,0,1.7036,1.7127,1.7114,1.7201,1.7242,1.7208,1.7254,1.7272,1.7273,1.7306,1.7308,1.7347,1.7309,1.732,1.7355,1.7357,1.7414,1.735,1.7395,1.7397,1.7386,1.7523,1.7544,1.764,1.7479,1.7481,1.7483,0,1.7175,1.7203,1.7294,1.7307,1.7324,1.7365,1.7395,1.7429,1.7448,1.7445,1.7467,1.7448,1.7499,1.7449,1.7517,1.7474,1.7492,1.7495,1.7499,1.75,1.7443,1.7524,1.7671,1.7684,1.7504,1.7502,1.7501,0,1.7272,1.7334,1.7395,1.7407,1.7425,1.7454,1.7463,1.7479,1.7501,1.7527,1.754,1.7573,1.759,1.7615,1.7605,1.757,1.7674,1.7624,1.7671,1.7671,1.7692,1.769,1.784,1.771,1.771,1.7709,1.7709,0,1.7394,1.7449,1.7438,1.7475,1.7536,1.7521,1.7581,1.7586,1.76,1.7637,1.7611,1.7646,1.7632,1.7665,1.7658,1.7713,1.7723,1.772,1.7717,1.7721,1.772,1.7729,1.7721,1.7713,1.7712,1.7712,1.7711,0,1.7511,1.7506,1.757,1.7581,1.7586,1.7629,1.7639,1.7673,1.7672,1.7718,1.7728,1.7726,1.7763,1.7756,1.7799,1.7793,1.7862,1.7852,1.7855,1.7851,1.7897,1.7891,1.8056,1.8075,1.7936,1.7937,1.7938,0,1.7587,1.7628,1.7644,1.7666,1.7677,1.7714,1.7735,1.7722,1.7744,1.7768,1.7799,1.7834,1.7861,1.7923,1.7924,1.7956,1.7944,1.8,1.7948,1.795,1.794,1.7936,1.7938,1.8008,1.801,1.8011,1.8013,0,1.772,1.7715,1.7746,1.7776,1.7802,1.7825,1.7846,1.7866,1.7854,1.7881,1.7919,1.794,1.7982,1.8016,1.8045,1.8053,1.803,1.8029,1.8041,1.8043,1.8041,1.8038,1.7878,1.8024,1.8023,1.8022,1.8022,1.8021,1.7816,1.785,1.7866,1.7901,1.7915,1.7934,1.7965,1.7968,1.7999,1.8031,1.8022,1.8064,1.808,1.8116,1.8128,1.8159,1.8138,1.8157,1.8161,1.8164,1.8168,1.8039,1.8165,1.8165,1.8165,1.8164,1.8164,0,1.7944,1.7952,1.7985,1.8014,1.8041,1.8018,1.8039,1.8063,1.81,1.8117,1.8144,1.8186,1.8218,1.8223,1.8253,1.8277,1.8267,1.8286,1.8282,1.8283,1.8187,1.8172,1.8293,1.8293,1.8293,1.8293,1.8293,1.8293,1.8014,1.8069,1.8066,1.8127,1.8135,1.8175,1.8189,1.8206,1.8219,1.8267,1.8293,1.8296,1.8307,1.8338,1.8366,1.8366,1.8377,1.8398,1.8394,1.8303,1.829,1.8278,1.8263,1.8402,1.8402,1.8487,1.8488,1.8488]}]]